IZ1BLA-10 Weather Reports


Display with metric or nautical units.
time (UTC)temp
F
wind
direction
speed
MPH
gust
MPH
rain 1hr
in
rain 24hr
in
rain mn
in
humidity
%
barometer
mb
20260507223921 51 0.0 0.0 0.00 0.00 0.00 10 1015.5
20260507222920 52 0.0 0.0 0.00 0.00 0.00 10 1015.4
20260507221920 52 0.0 0.0 0.00 0.00 0.00 99 1015.3
20260507220920 52 0.0 0.0 0.00 0.00 0.00 10 1015.3
20260507215921 52 0.0 0.0 0.00 0.00 0.00 10 1015.2
20260507214921 52 0.0 0.0 0.00 0.00 0.00 10 1015.2
20260507213920 53 0.0 0.0 0.00 0.00 0.00 10 1014.8
20260507212921 52 0.0 0.0 0.00 0.00 0.00 10 1014.9
20260507211920 53 0.0 0.0 0.00 0.00 0.00 10 1014.5
20260507210921 53 0.0 0.0 0.00 0.00 0.00 10 1014.5
20260507205921 55 0.0 0.0 0.00 0.00 0.00 95 1014.3
20260507204920 54 0.0 0.0 0.00 0.00 0.00 99 1014.5
20260507203920 54 0.0 0.0 0.00 0.00 0.00 10 1014.5
20260507202920 53 0.0 0.0 0.00 0.00 0.00 10 1014.6
20260507201921 54 0.0 0.0 0.00 0.00 0.00 10 1014.2
20260507200920 53 0.0 0.0 0.00 0.00 0.00 10 1014.3
20260507195920 54 0.0 0.0 0.00 0.00 0.00 10 1014.2
20260507194921 57 0.0 0.0 0.00 0.00 0.00 92 1013.5
20260507193921 56 0.0 0.0 0.00 0.00 0.00 97 1013.5
20260507192922 60 0.0 0.0 0.00 0.00 0.00 82 1012.6
20260507191920 61 0.0 0.0 0.00 0.00 0.00 79 1012.3
20260507190920 62 0.0 0.0 0.00 0.00 0.00 72 1012.0
20260507185921 61 0.0 0.0 0.00 0.00 0.00 75 1012.1
20260507184920 64 0.0 0.0 0.00 0.00 0.00 67 1011.6
20260507183922 64 0.0 0.0 0.00 0.00 0.00 67 1011.7
20260507182921 64 0.0 0.0 0.00 0.00 0.00 66 1011.5
20260507181920 64 0.0 0.0 0.00 0.00 0.00 66 1011.3
20260507180921 60 0.0 0.0 0.00 0.00 0.00 74 1012.0
20260507175920 65 0.0 0.0 0.00 0.00 0.00 57 1010.9
20260507174920 67 0.0 0.0 0.00 0.00 0.00 52 1010.6
20260507173920 70 0.0 0.0 0.00 0.00 0.00 47 1010.0
20260507172921 67 0.0 0.0 0.00 0.00 0.00 50 1010.5
20260507171920 68 0.0 0.0 0.00 0.00 0.00 47 1010.1
20260507170921 68 0.0 0.0 0.00 0.00 0.00 47 1010.2
20260507165920 69 0.0 0.0 0.00 0.00 0.00 46 1010.1
20260507164920 69 0.0 0.0 0.00 0.00 0.00 46 1010.1
20260507163921 69 0.0 0.0 0.00 0.00 0.00 45 1010.0
20260507162920 70 0.0 0.0 0.00 0.00 0.00 44 1009.7
20260507161920 70 0.0 0.0 0.00 0.00 0.00 45 1009.9
20260507160920 69 0.0 0.0 0.00 0.00 0.00 46 1010.0
20260507155921 69 0.0 0.0 0.00 0.00 0.00 46 1009.9
20260507154920 68 0.0 0.0 0.00 0.00 0.00 46 1010.0
20260507153921 67 0.0 0.0 0.00 0.00 0.00 47 1010.2
20260507152921 68 0.0 0.0 0.00 0.00 0.00 46 1009.9
20260507151920 70 0.0 0.0 0.00 0.00 0.00 44 1009.7
20260507150921 69 0.0 0.0 0.00 0.00 0.00 44 1009.8
20260507145920 69 0.0 0.0 0.00 0.00 0.00 46 1010.0
20260507144921 68 0.0 0.0 0.00 0.00 0.00 46 1010.1
20260507143920 69 0.0 0.0 0.00 0.00 0.00 44 1009.9
20260507142920 70 0.0 0.0 0.00 0.00 0.00 43 1009.9
20260507141921 70 0.0 0.0 0.00 0.00 0.00 44 1010.0
20260507140920 70 0.0 0.0 0.00 0.00 0.00 44 1009.9
20260507135920 70 0.0 0.0 0.00 0.00 0.00 43 1010.1
20260507134920 70 0.0 0.0 0.00 0.00 0.00 43 1010.2
20260507133920 69 0.0 0.0 0.00 0.00 0.00 44 1010.5
20260507132920 70 0.0 0.0 0.00 0.00 0.00 44 1010.4
20260507131920 70 0.0 0.0 0.00 0.00 0.00 44 1010.4
20260507130920 70 0.0 0.0 0.00 0.00 0.00 43 1010.4
20260507125920 71 0.0 0.0 0.00 0.00 0.00 44 1010.3
20260507124920 69 0.0 0.0 0.00 0.00 0.00 46 1010.6
20260507123920 69 0.0 0.0 0.00 0.00 0.00 46 1010.7
20260507122919 69 0.0 0.0 0.00 0.00 0.00 45 1010.7
20260507121920 67 0.0 0.0 0.00 0.00 0.00 49 1011.1
20260507120920 68 0.0 0.0 0.00 0.00 0.00 48 1010.9
20260507115920 67 0.0 0.0 0.00 0.00 0.00 50 1011.2
20260507114920 64 0.0 0.0 0.00 0.00 0.00 54 1011.6
20260507113920 65 0.0 0.0 0.00 0.00 0.00 53 1011.7
20260507112920 66 0.0 0.0 0.00 0.00 0.00 51 1011.6
20260507111920 65 0.0 0.0 0.00 0.00 0.00 54 1012.1
20260507110920 64 0.0 0.0 0.00 0.00 0.00 54 1012.2
20260507105919 63 0.0 0.0 0.00 0.00 0.00 57 1012.5
20260507104920 62 0.0 0.0 0.00 0.00 0.00 59 1012.9
20260507103919 63 0.0 0.0 0.00 0.00 0.00 56 1012.6
20260507102920 64 0.0 0.0 0.00 0.00 0.00 55 1012.6
20260507101919 64 0.0 0.0 0.00 0.00 0.00 55 1012.6
20260507100920 62 0.0 0.0 0.00 0.00 0.00 59 1012.9
20260507095920 61 0.0 0.0 0.00 0.00 0.00 60 1013.1
20260507094919 62 0.0 0.0 0.00 0.00 0.00 60 1012.9
20260507093919 61 0.0 0.0 0.00 0.00 0.00 61 1012.8
20260507092920 60 0.0 0.0 0.00 0.00 0.00 62 1013.0
20260507091919 63 0.0 0.0 0.00 0.00 0.00 57 1012.5
20260507090919 61 0.0 0.0 0.00 0.00 0.00 61 1012.6
20260507085920 61 0.0 0.0 0.00 0.00 0.00 59 1012.7
20260507084920 61 0.0 0.0 0.00 0.00 0.00 58 1012.5
20260507083920 60 0.0 0.0 0.00 0.00 0.00 59 1012.6
20260507082919 60 0.0 0.0 0.00 0.00 0.00 61 1012.5
20260507081920 60 0.0 0.0 0.00 0.00 0.00 60 1012.6
20260507080920 60 0.0 0.0 0.00 0.00 0.00 61 1012.6
20260507075920 59 0.0 0.0 0.00 0.00 0.00 62 1012.7
20260507074920 61 0.0 0.0 0.00 0.00 0.00 58 1012.4
20260507073920 60 0.0 0.0 0.00 0.00 0.00 57 1012.5
20260507072920 58 0.0 0.0 0.00 0.00 0.00 62 1012.9
20260507071920 58 0.0 0.0 0.00 0.00 0.00 60 1012.7
20260507070920 57 0.0 0.0 0.00 0.00 0.00 58 1013.1
20260507065920 56 0.0 0.0 0.00 0.00 0.00 57 1013.1
20260507064920 56 0.0 0.0 0.00 0.00 0.00 54 1013.2
20260507063920 54 0.0 0.0 0.00 0.00 0.00 53 1013.2
20260507062920 55 0.0 0.0 0.00 0.00 0.00 52 1013.2
20260507061920 53 0.0 0.0 0.00 0.00 0.00 56 1013.4
20260507060920 53 0.0 0.0 0.00 0.00 0.00 55 1013.4
20260507055920 52 0.0 0.0 0.00 0.00 0.00 59 1013.6
20260507054919 53 0.0 0.0 0.00 0.00 0.00 55 1013.1
20260507053919 51 0.0 0.0 0.00 0.00 0.00 60 1013.3
20260507052919 51 0.0 0.0 0.00 0.00 0.00 59 1013.3
20260507051919 52 0.0 0.0 0.00 0.00 0.00 58 1012.9
20260507050919 52 0.0 0.0 0.00 0.00 0.00 62 1012.7
20260507045919 50 0.0 0.0 0.00 0.00 0.00 63 1012.8
20260507044919 50 0.0 0.0 0.00 0.00 0.00 64 1012.9
20260507043919 52 0.0 0.0 0.00 0.00 0.00 61 1012.5
20260507042919 53 0.0 0.0 0.00 0.00 0.00 60 1012.2
20260507041919 53 0.0 0.0 0.00 0.00 0.00 60 1012.2
20260507040919 53 0.0 0.0 0.00 0.00 0.00 59 1012.0
20260507035919 53 0.0 0.0 0.00 0.00 0.00 60 1012.0
20260507034919 53 0.0 0.0 0.00 0.00 0.00 62 1012.0
20260507033919 52 0.0 0.0 0.00 0.00 0.00 65 1012.3
20260507032919 52 0.0 0.0 0.00 0.00 0.00 64 1012.3
20260507031919 50 0.0 0.0 0.00 0.00 0.00 69 1012.6
20260507030919 50 0.0 0.0 0.00 0.00 0.00 69 1012.5
20260507025919 51 0.0 0.0 0.00 0.00 0.00 66 1012.2
20260507024919 52 0.0 0.0 0.00 0.00 0.00 64 1012.0
20260507023919 54 0.0 0.0 0.00 0.00 0.00 62 1011.6
20260507022919 54 0.0 0.0 0.00 0.00 0.00 63 1011.6
20260507021918 55 0.0 0.0 0.00 0.00 0.00 60 1011.3
20260507020918 53 0.0 0.0 0.00 0.00 0.00 63 1011.6
20260507015919 55 0.0 0.0 0.00 0.00 0.00 61 1011.2
20260507014918 57 0.0 0.0 0.00 0.00 0.00 60 1011.0
20260507013919 56 0.0 0.0 0.00 0.00 0.00 62 1011.1
20260507011919 58 0.0 0.0 0.00 0.00 0.00 65 1010.8
20260507010918 61 0.0 0.0 0.00 0.00 0.00 64 1010.3
20260507005918 61 0.0 0.0 0.00 0.00 0.00 67 1010.2
20260507004918 61 0.0 0.0 0.00 0.00 0.00 67 1010.3
20260507003919 61 0.0 0.0 0.00 0.00 0.00 69 1010.4
20260507002919 60 0.0 0.0 0.00 0.00 0.00 70 1010.5
20260507001919 61 0.0 0.0 0.00 0.00 0.00 67 1010.3
20260507000919 61 0.0 0.0 0.00 0.00 0.00 68 1010.3
20260506235919 62 0.0 0.0 0.00 0.00 0.00 66 1010.2
20260506234918 62 0.0 0.0 0.00 0.00 0.00 66 1010.1
20260506233919 62 0.0 0.0 0.00 0.00 0.00 67 1010.1
20260506232919 62 0.0 0.0 0.00 0.00 0.00 66 1010.1
20260506231918 61 0.0 0.0 0.00 0.00 0.00 68 1010.1
20260506230919 61 0.0 0.0 0.00 0.00 0.00 68 1010.1
20260506225918 62 0.0 0.0 0.00 0.00 0.00 67 1009.8
20260506224918 62 0.0 0.0 0.00 0.00 0.00 67 1009.7